When you browse on this site, cookies collect data to enhance your experience and personalize the content and advertising you see.
Visit our Privacy Policy to learn more. By continuing to use the site, you agree to this use of cookies and data.
  • In United Kingdom
  • List of Countries
  • For 7 days
  • Water Temperature
  • Weather Map
  • Weather Widgets
  • user-avatar
    Login

    Hourly Weather Warburg

    Today, 26 January, Sunday

    Time Temperature Precipitation Wind Pressure Humidity
    00:00 0°C° 0 mm 1 mps 744 mmHg 79%
    01:00 0°C° 0 mm 1 mps 744 mmHg 81%
    02:00 -2°C° 0 mm 2 mps 744 mmHg 84%
    03:00 -2°C° 0 mm 2 mps 743 mmHg 86%
    04:00 -2°C° 0 mm 2 mps 743 mmHg 89%
    05:00 -2°C° 0 mm 2 mps 743 mmHg 89%
    06:00 -1°C° 0 mm 2 mps 743 mmHg 90%
    07:00 -1°C° 0 mm 2 mps 743 mmHg 93%
    08:00 -1°C° 0 mm 2 mps 743 mmHg 90%
    09:00 +1°C° 0 mm 2 mps 743 mmHg 88%
    10:00 +1°C° 0 mm 2 mps 743 mmHg 85%
    11:00 +3°C° 0 mm 2 mps 743 mmHg 83%
    12:00 +4°C° 0 mm 2 mps 742 mmHg 80%
    13:00 +4°C° 0 mm 3 mps 742 mmHg 78%
    14:00 +4°C° 0 mm 2 mps 742 mmHg 81%
    15:00 +4°C° 0 mm 2 mps 741 mmHg 84%
    16:00 +3°C° 0 mm 2 mps 741 mmHg 87%
    17:00 +3°C° 0 mm 2 mps 741 mmHg 89%
    18:00 +2°C° 0 mm 2 mps 741 mmHg 91%
    19:00 +1°C° 0 mm 2 mps 741 mmHg 93%
    20:00 0°C° 0 mm 3 mps 741 mmHg 94%
    21:00 0°C° 0 mm 3 mps 741 mmHg 94%
    22:00 0°C° 0 mm 3 mps 741 mmHg 94%
    23:00 0°C° 0 mm 3 mps 740 mmHg 94%

    Tomorrow, 27 January, Monday

    Time Temperature Precipitation Wind Pressure Humidity
    00:00 0°C° 0 mm 3 mps 740 mmHg 94%
    01:00 0°C° 0 mm 3 mps 740 mmHg 94%
    02:00 0°C° 0 mm 3 mps 740 mmHg 94%
    03:00 0°C° 0 mm 4 mps 739 mmHg 94%
    04:00 0°C° 0 mm 4 mps 739 mmHg 94%
    05:00 +1°C° 0 mm 4 mps 738 mmHg 93%
    06:00 +1°C° 0 mm 4 mps 738 mmHg 92%
    07:00 +3°C° 0 mm 4 mps 737 mmHg 91%
    08:00 +3°C° 0.1 mm 4 mps 737 mmHg 91%
    09:00 +3°C° 0.1 mm 5 mps 737 mmHg 90%
    10:00 +3°C° 0.1 mm 5 mps 737 mmHg 90%
    11:00 +3°C° 0 mm 5 mps 736 mmHg 89%
    12:00 +5°C° 0 mm 5 mps 736 mmHg 87%
    13:00 +5°C° 0 mm 5 mps 735 mmHg 86%
    14:00 +5°C° 0.1 mm 5 mps 735 mmHg 88%
    15:00 +4°C° 0.1 mm 4 mps 734 mmHg 89%
    16:00 +4°C° 0.1 mm 4 mps 734 mmHg 91%
    17:00 +4°C° 0.4 mm 4 mps 733 mmHg 92%
    18:00 +4°C° 0.4 mm 4 mps 733 mmHg 93%
    19:00 +4°C° 0.4 mm 4 mps 732 mmHg 94%
    20:00 +4°C° 0.2 mm 3 mps 732 mmHg 94%
    21:00 +4°C° 0.2 mm 3 mps 731 mmHg 93%
    22:00 +4°C° 0.2 mm 3 mps 731 mmHg 93%
    23:00 +4°C° 0.1 mm 3 mps 730 mmHg 93%

    Day after tomorrow, 28 January, Tuesday

    Time Temperature Precipitation Wind Pressure Humidity
    00:00 +4°C° 0.1 mm 3 mps 729 mmHg 93%
    01:00 +4°C° 0.1 mm 4 mps 728 mmHg 93%
    02:00 +4°C° 0.5 mm 4 mps 727 mmHg 93%
    03:00 +4°C° 0.5 mm 4 mps 726 mmHg 93%
    04:00 +4°C° 0.5 mm 4 mps 725 mmHg 94%
    05:00 +4°C° 1.1 mm 4 mps 724 mmHg 92%
    06:00 +4°C° 1.1 mm 4 mps 724 mmHg 90%
    07:00 +4°C° 1.1 mm 4 mps 724 mmHg 89%
    08:00 +2°C° 0.4 mm 5 mps 723 mmHg 90%
    09:00 +2°C° 0.4 mm 5 mps 723 mmHg 90%
    10:00 +2°C° 0.4 mm 5 mps 723 mmHg 91%
    11:00 +2°C° 0.8 mm 5 mps 723 mmHg 89%
    12:00 +2°C° 0.8 mm 6 mps 724 mmHg 88%
    13:00 +2°C° 0.8 mm 6 mps 724 mmHg 86%
    14:00 0°C° 0.3 mm 7 mps 725 mmHg 83%
    15:00 0°C° 0.3 mm 7 mps 725 mmHg 80%
    16:00 0°C° 0.3 mm 8 mps 726 mmHg 78%
    17:00 -1°C° 0 mm 7 mps 726 mmHg 77%
    18:00 -2°C° 0 mm 6 mps 727 mmHg 75%
    19:00 -2°C° 0 mm 5 mps 727 mmHg 74%
    20:00 -1°C° 0.2 mm 5 mps 727 mmHg 79%
    21:00 -1°C° 0.2 mm 5 mps 727 mmHg 83%
    22:00 -1°C° 0.2 mm 5 mps 727 mmHg 88%
    23:00 -1°C° 0 mm 5 mps 727 mmHg 88%

    29 January, Wednesday

    Time Temperature Precipitation Wind Pressure Humidity
    00:00 -1°C° 0 mm 5 mps 726 mmHg 89%
    01:00 -1°C° 0 mm 4 mps 726 mmHg 90%
    02:00 -1°C° 0 mm 5 mps 727 mmHg 89%
    03:00 -1°C° 0 mm 5 mps 727 mmHg 88%
    04:00 0°C° 0 mm 5 mps 727 mmHg 87%
    05:00 -2°C° 0.6 mm 7 mps 727 mmHg 89%
    06:00 -2°C° 0.6 mm 8 mps 727 mmHg 91%
    07:00 -3°C° 0.6 mm 9 mps 728 mmHg 93%
    08:00 -1°C° 1.6 mm 9 mps 728 mmHg 93%
    09:00 -1°C° 1.6 mm 9 mps 729 mmHg 94%
    10:00 -1°C° 1.6 mm 9 mps 730 mmHg 95%
    11:00 -1°C° 0.3 mm 8 mps 731 mmHg 94%
    12:00 0°C° 0.3 mm 7 mps 732 mmHg 93%
    13:00 0°C° 0.3 mm 7 mps 733 mmHg 92%
    14:00 0°C° 0.2 mm 7 mps 734 mmHg 91%
    15:00 0°C° 0.2 mm 7 mps 734 mmHg 91%
    16:00 -1°C° 0.2 mm 7 mps 735 mmHg 90%
    17:00 -1°C° 0 mm 6 mps 736 mmHg 87%
    18:00 -1°C° 0 mm 5 mps 736 mmHg 85%
    19:00 -1°C° 0 mm 4 mps 737 mmHg 83%
    20:00 -1°C° 0 mm 5 mps 737 mmHg 86%
    21:00 -1°C° 0 mm 5 mps 738 mmHg 89%
    22:00 -1°C° 0 mm 5 mps 738 mmHg 92%
    23:00 -1°C° 0 mm 5 mps 739 mmHg 90%

    30 January, Thursday

    Time Temperature Precipitation Wind Pressure Humidity
    00:00 -1°C° 0 mm 5 mps 739 mmHg 89%
    01:00 -1°C° 0 mm 5 mps 739 mmHg 87%
    02:00 -1°C° 0 mm 5 mps 740 mmHg 88%
    03:00 -1°C° 0 mm 4 mps 740 mmHg 88%
    04:00 -2°C° 0 mm 4 mps 740 mmHg 88%
    05:00 -2°C° 0 mm 4 mps 740 mmHg 89%
    06:00 -2°C° 0 mm 4 mps 740 mmHg 89%
    07:00 -2°C° 0 mm 4 mps 740 mmHg 90%
    08:00 -1°C° 0 mm 4 mps 740 mmHg 88%
    09:00 -1°C° 0 mm 4 mps 741 mmHg 86%
    10:00 0°C° 0 mm 5 mps 741 mmHg 84%
    11:00 +1°C° 0 mm 5 mps 741 mmHg 82%
    12:00 +2°C° 0 mm 5 mps 741 mmHg 80%
    13:00 +3°C° 0 mm 5 mps 741 mmHg 79%
    14:00 +3°C° 0 mm 4 mps 740 mmHg 81%
    15:00 +3°C° 0 mm 4 mps 740 mmHg 83%
    16:00 +3°C° 0 mm 3 mps 740 mmHg 86%
    17:00 +2°C° 0 mm 3 mps 740 mmHg 88%
    18:00 +1°C° 0 mm 3 mps 740 mmHg 90%
    19:00 +1°C° 0 mm 2 mps 740 mmHg 92%
    20:00 +1°C° 0 mm 2 mps 740 mmHg 92%
    21:00 +1°C° 0 mm 2 mps 740 mmHg 91%
    22:00 +1°C° 0 mm 2 mps 740 mmHg 91%
    23:00 +1°C° 0 mm 2 mps 740 mmHg 91%

    31 January, Friday

    Time Temperature Precipitation Wind Pressure Humidity
    00:00 +1°C° 0 mm 2 mps 740 mmHg 90%
    01:00 +1°C° 0 mm 2 mps 739 mmHg 90%
    02:00 -1°C° 0 mm 2 mps 739 mmHg 89%
    03:00 -1°C° 0 mm 2 mps 739 mmHg 89%
    04:00 -1°C° 0 mm 2 mps 739 mmHg 89%
    05:00 -1°C° 0 mm 2 mps 739 mmHg 89%
    06:00 -1°C° 0 mm 2 mps 739 mmHg 89%
    07:00 -1°C° 0 mm 2 mps 739 mmHg 89%
    08:00 -1°C° 0 mm 2 mps 739 mmHg 88%
    09:00 +1°C° 0 mm 2 mps 739 mmHg 87%
    10:00 +1°C° 0 mm 3 mps 739 mmHg 86%
    11:00 +3°C° 0 mm 3 mps 739 mmHg 86%
    12:00 +4°C° 0 mm 3 mps 739 mmHg 85%
    13:00 +5°C° 0 mm 3 mps 739 mmHg 85%
    14:00 +5°C° 0 mm 3 mps 739 mmHg 87%
    15:00 +5°C° 0 mm 3 mps 739 mmHg 89%
    16:00 +4°C° 0 mm 3 mps 739 mmHg 91%
    17:00 +4°C° 0 mm 3 mps 739 mmHg 92%
    18:00 +4°C° 0 mm 3 mps 739 mmHg 93%
    19:00 +4°C° 0 mm 3 mps 739 mmHg 94%
    20:00 +4°C° 0 mm 3 mps 739 mmHg 94%
    21:00 +5°C° 0 mm 3 mps 739 mmHg 95%
    22:00 +5°C° 0 mm 3 mps 739 mmHg 95%
    23:00 +5°C° 0 mm 3 mps 739 mmHg 95%
    Show more